Darstellungsparameter: Aktuell verwendete Einstellungen:
Skalierung der Graphiken ... ?
xyx+y,   Skalierungsfaktor:      Skalierung: Modus: x, Faktor: 1
Darstellungszeitraum ... ?
Vom - - bis: - -   Zeitraum: 30.03.2020 - 01.04.2020
Min/Max/Avg-Anzeige ... ?
Zeige MMA aktuell
Zeige MMA Monat
Zeige MMA alles
Zeige --A aktuell
Zeige --A Monat
Zeige --A alles
Keine MMA-Anzeige
MMA:
Average (ber die Originaldaten)
MMA-Basis: 30.03.2020 - 01.04.2020
Quicknavigation für Darstellung... ?
Tage:      1T, 2T, 3T, 5T -1T -2T -3T -5T +1T +2T +3T +5T
Wochen: 1W, 2W, 3W -1W -2W -3W +1W +2W +3W
Monate: 1M, 3M, 6M -1M -3M -6M +1M +3M +6M
Jahre:    1J, 3J, 5J, 10J -1J -3J -5J -10J +1J +3J +5J +10J
Nutze für die Darstellung ... ?
Originaldaten oder Mittelwerte auf ...
Stundenbasis Tagesbasis Wochenbasis
Monatsbasis Jahresbasis      Datenbasis: Original-Daten
Darstellen als:
Statistik (Auto) Statistik J:M      Darstellung:
Zur Graphik,    zurück zur Übersicht aller Sensoren.
 
Tabellarische Datenbersicht: ?
 
Sensor: Nr:Datum:Temp:Abs-Feuchte:Windchill:Wind:
Aussen-T/F 1 30-03-2020 00:00:00 3.6 C 4.15 g/m*3 0.7 C 11.3 km/h
2 30-03-2020 00:05:00 3.4 C 4.09 g/m*3 0.46 C 11.3 km/h
3 30-03-2020 00:10:00 3.3 C 4.06 g/m*3 1.11 C 8.1 km/h
4 30-03-2020 00:15:00 3.3 C 4 g/m*3 0.7 C 9.7 km/h
5 30-03-2020 00:20:00 3.3 C 4 g/m*3 0.7 C 9.7 km/h
6 30-03-2020 00:25:00 3.3 C 4.06 g/m*3 1.11 C 8.1 km/h
7 30-03-2020 00:30:00 3.1 C 4.07 g/m*3 3.1 C 4.8 km/h
8 30-03-2020 00:35:00 2.9 C 4.07 g/m*3 2.9 C 3.2 km/h
9 30-03-2020 00:40:00 2.7 C 4.08 g/m*3 0.94 C 6.4 km/h
10 30-03-2020 00:45:00 2.4 C 4 g/m*3 2.4 C 4.8 km/h
11 30-03-2020 00:50:00 2.2 C 4.06 g/m*3 2.2 C 3.2 km/h
12 30-03-2020 00:55:00 1.9 C 4.03 g/m*3 1.9 C 3.2 km/h
13 30-03-2020 01:00:00 1.7 C 4.03 g/m*3 1.7 C 3.2 km/h
14 30-03-2020 01:05:00 1.5 C 3.97 g/m*3 1.5 C 3.2 km/h
15 30-03-2020 01:10:00 1.4 C 3.95 g/m*3 1.4 C 4.8 km/h
16 30-03-2020 01:15:00 1.4 C 3.95 g/m*3 1.4 C 4.8 km/h
17 30-03-2020 01:20:00 1.4 C 3.89 g/m*3 1.4 C 3.2 km/h
18 30-03-2020 01:25:00 1.4 C 3.89 g/m*3 -0.56 C 6.4 km/h
19 30-03-2020 01:30:00 1.5 C 3.81 g/m*3 1.5 C 3.2 km/h
20 30-03-2020 01:35:00 1.4 C 3.89 g/m*3 1.4 C 4.8 km/h
21 30-03-2020 01:40:00 1.3 C 3.92 g/m*3 1.3 C 1.6 km/h
22 30-03-2020 01:45:00 1.1 C 3.92 g/m*3 1.1 C 1.6 km/h
23 30-03-2020 01:50:00 0.8 C 3.84 g/m*3 0.8 C 1.6 km/h
24 30-03-2020 01:55:00 0.6 C 3.84 g/m*3 0.6 C 3.2 km/h
25 30-03-2020 02:00:00 0.4 C 3.84 g/m*3 0.4 C 1.6 km/h
Sensor: Nr:Datum:Temp:Abs-Feuchte:Windchill:Wind:
Aussen-T/F 26 30-03-2020 02:05:00 0.3 C 3.76 g/m*3 -1.84 C 6.4 km/h
27 30-03-2020 02:10:00 0.3 C 3.81 g/m*3 0.3 C 0 km/h
28 30-03-2020 02:15:00 0.2 C 3.78 g/m*3 0.2 C 0 km/h
29 30-03-2020 02:20:00 -0.1 C 3.75 g/m*3 -0.1 C 1.6 km/h
30 30-03-2020 02:25:00 -0.3 C 3.7 g/m*3 -0.3 C 0 km/h
31 30-03-2020 02:30:00 -0.5 C 3.7 g/m*3 -0.5 C 0 km/h
32 30-03-2020 02:35:00 -0.7 C 3.69 g/m*3 -0.7 C 1.6 km/h
33 30-03-2020 02:40:00 -0.7 C 3.69 g/m*3 -0.7 C 1.6 km/h
34 30-03-2020 02:45:00 -0.8 C 3.71 g/m*3 -0.8 C 1.6 km/h
35 30-03-2020 02:50:00 -0.8 C 3.71 g/m*3 -0.8 C 0 km/h
36 30-03-2020 02:55:00 -0.9 C 3.69 g/m*3 -0.9 C 1.6 km/h
37 30-03-2020 03:00:00 -0.9 C 3.69 g/m*3 -0.9 C 3.2 km/h
38 30-03-2020 03:05:00 -1 C 3.62 g/m*3 -1 C 4.8 km/h
39 30-03-2020 03:10:00 -1 C 3.62 g/m*3 -1 C 3.2 km/h
40 30-03-2020 03:15:00 -1 C 3.66 g/m*3 -1 C 3.2 km/h
41 30-03-2020 03:20:00 -1.1 C 3.64 g/m*3 -1.1 C 3.2 km/h
42 30-03-2020 03:25:00 -1.1 C 3.64 g/m*3 -1.1 C 0 km/h
43 30-03-2020 03:30:00 -1.2 C 3.66 g/m*3 -1.2 C 1.6 km/h
44 30-03-2020 03:35:00 -1.3 C 3.63 g/m*3 -1.3 C 0 km/h
45 30-03-2020 03:40:00 -1.4 C 3.6 g/m*3 -1.4 C 3.2 km/h
46 30-03-2020 03:45:00 -1.4 C 3.6 g/m*3 -1.4 C 3.2 km/h
47 30-03-2020 03:50:00 -1.5 C 3.62 g/m*3 -1.5 C 3.2 km/h
48 30-03-2020 03:55:00 -1.6 C 3.6 g/m*3 -1.6 C 0 km/h
49 30-03-2020 04:00:00 -1.6 C 3.6 g/m*3 -1.6 C 3.2 km/h
50 30-03-2020 04:05:00 -1.6 C 3.6 g/m*3 -1.6 C 4.8 km/h
Sensor: Nr:Datum:Temp:Abs-Feuchte:Windchill:Wind:
Aussen-T/F 51 30-03-2020 04:10:00 -1.6 C 3.6 g/m*3 -1.6 C 0 km/h
52 30-03-2020 04:15:00 -1.6 C 3.64 g/m*3 -1.6 C 0 km/h
53 30-03-2020 04:20:00 -1.6 C 3.6 g/m*3 -1.6 C 1.6 km/h
54 30-03-2020 04:25:00 -1.7 C 3.57 g/m*3 -1.7 C 4.8 km/h
55 30-03-2020 04:30:00 -1.7 C 3.57 g/m*3 -1.7 C 0 km/h
56 30-03-2020 04:35:00 -1.8 C 3.55 g/m*3 -1.8 C 0 km/h
57 30-03-2020 04:40:00 -1.8 C 3.55 g/m*3 -1.8 C 0 km/h
58 30-03-2020 04:45:00 -1.9 C 3.52 g/m*3 -1.9 C 0 km/h
59 30-03-2020 04:50:00 -2 C 3.5 g/m*3 -2 C 3.2 km/h
60 30-03-2020 04:55:00 -2 C 3.5 g/m*3 -2 C 0 km/h
61 30-03-2020 05:00:00 -1.9 C 3.52 g/m*3 -1.9 C 3.2 km/h
62 30-03-2020 05:05:00 -1.8 C 3.51 g/m*3 -1.8 C 3.2 km/h
63 30-03-2020 05:10:00 -1.8 C 3.51 g/m*3 -1.8 C 1.6 km/h
64 30-03-2020 05:15:00 -1.8 C 3.46 g/m*3 -1.8 C 0 km/h
65 30-03-2020 05:20:00 -1.9 C 3.44 g/m*3 -1.9 C 1.6 km/h
66 30-03-2020 05:25:00 -1.9 C 3.44 g/m*3 -1.9 C 3.2 km/h
67 30-03-2020 05:30:00 -2 C 3.41 g/m*3 -2 C 0 km/h
68 30-03-2020 05:35:00 -2.1 C 3.39 g/m*3 -2.1 C 3.2 km/h
69 30-03-2020 05:40:00 -2.2 C 3.37 g/m*3 -2.2 C 0 km/h
70 30-03-2020 05:45:00 -2.3 C 3.38 g/m*3 -2.3 C 0 km/h
71 30-03-2020 05:50:00 -2.4 C 3.36 g/m*3 -2.4 C 0 km/h
72 30-03-2020 05:55:00 -2.5 C 3.34 g/m*3 -2.5 C 0 km/h
73 30-03-2020 06:00:00 -2.6 C 3.31 g/m*3 -2.6 C 0 km/h
74 30-03-2020 06:05:00 -2.7 C 3.29 g/m*3 -2.7 C 0 km/h
75 30-03-2020 06:10:00 -2.7 C 3.29 g/m*3 -2.7 C 0 km/h
Sensor: Nr:Datum:Temp:Abs-Feuchte:Windchill:Wind:
Aussen-T/F 76 30-03-2020 06:15:00 -2.8 C 3.31 g/m*3 -2.8 C 0 km/h
77 30-03-2020 06:20:00 -2.9 C 3.28 g/m*3 -2.9 C 0 km/h
78 30-03-2020 06:25:00 -3 C 3.3 g/m*3 -3 C 0 km/h
79 30-03-2020 06:30:00 -3 C 3.3 g/m*3 -3 C 0 km/h
80 30-03-2020 06:35:00 -3.1 C 3.28 g/m*3 -3.1 C 0 km/h
81 30-03-2020 06:40:00 -3.1 C 3.28 g/m*3 -5.76 C 6.4 km/h
82 30-03-2020 06:45:00 -3.1 C 3.28 g/m*3 -3.1 C 3.2 km/h
83 30-03-2020 06:50:00 -2.9 C 3.36 g/m*3 -2.9 C 1.6 km/h
84 30-03-2020 06:55:00 -2.9 C 3.36 g/m*3 -2.9 C 0 km/h
85 30-03-2020 07:00:00 -2.8 C 3.35 g/m*3 -2.8 C 0 km/h
86 30-03-2020 07:05:00 -2.9 C 3.32 g/m*3 -2.9 C 1.6 km/h
87 30-03-2020 07:10:00 -2.9 C 3.32 g/m*3 -2.9 C 1.6 km/h
88 30-03-2020 07:15:00 -2.9 C 3.32 g/m*3 -2.9 C 3.2 km/h
89 30-03-2020 07:20:00 -2.9 C 3.32 g/m*3 -2.9 C 1.6 km/h
90 30-03-2020 07:25:00 -2.9 C 3.28 g/m*3 -2.9 C 0 km/h
91 30-03-2020 07:30:00 -3 C 3.26 g/m*3 -3 C 0 km/h
92 30-03-2020 07:35:00 -3.1 C 3.24 g/m*3 -3.1 C 0 km/h
93 30-03-2020 07:40:00 -3.2 C 3.25 g/m*3 -3.2 C 0 km/h
94 30-03-2020 07:45:00 -3.3 C 3.23 g/m*3 -3.3 C 1.6 km/h
95 30-03-2020 07:50:00 -3.3 C 3.23 g/m*3 -3.3 C 0 km/h
96 30-03-2020 07:55:00 -3.4 C 3.21 g/m*3 -3.4 C 0 km/h
97 30-03-2020 08:00:00 -3.4 C 3.21 g/m*3 -3.4 C 0 km/h
98 30-03-2020 08:05:00 -3.4 C 3.25 g/m*3 -3.4 C 0 km/h
99 30-03-2020 08:10:00 -3.4 C 3.25 g/m*3 -3.4 C 0 km/h
100 30-03-2020 08:15:00 -3.3 C 3.27 g/m*3 -3.3 C 0 km/h
Sensor: Nr:Datum:Temp:Abs-Feuchte:Windchill:Wind:
Aussen-T/F 101 30-03-2020 08:20:00 -3.3 C 3.27 g/m*3 -3.3 C 0 km/h
102 30-03-2020 08:25:00 -3.3 C 3.27 g/m*3 -3.3 C 0 km/h
103 30-03-2020 08:30:00 -3.3 C 3.27 g/m*3 -3.3 C 1.6 km/h
104 30-03-2020 08:35:00 -3.2 C 3.29 g/m*3 -3.2 C 3.2 km/h
105 30-03-2020 08:40:00 -3.1 C 3.32 g/m*3 -3.1 C 0 km/h
106 30-03-2020 08:45:00 -3.1 C 3.32 g/m*3 -3.1 C 0 km/h
107 30-03-2020 08:50:00 -3 C 3.34 g/m*3 -3 C 0 km/h
108 30-03-2020 08:55:00 -2.9 C 3.32 g/m*3 -2.9 C 0 km/h
109 30-03-2020 09:00:00 -2.8 C 3.35 g/m*3 -2.8 C 0 km/h
110 30-03-2020 09:05:00 -2.7 C 3.33 g/m*3 -2.7 C 0 km/h
111 30-03-2020 09:10:00 -2.6 C 3.35 g/m*3 -2.6 C 1.6 km/h
112 30-03-2020 09:15:00 -2.5 C 3.34 g/m*3 -2.5 C 0 km/h
113 30-03-2020 09:20:00 -2.4 C 3.32 g/m*3 -2.4 C 3.2 km/h
114 30-03-2020 09:25:00 -2.3 C 3.34 g/m*3 -2.3 C 1.6 km/h
115 30-03-2020 09:30:00 -2.2 C 3.33 g/m*3 -2.2 C 1.6 km/h
116 30-03-2020 09:35:00 -2.1 C 3.35 g/m*3 -2.1 C 1.6 km/h
117 30-03-2020 09:40:00 -1.9 C 3.35 g/m*3 -1.9 C 3.2 km/h
118 30-03-2020 09:45:00 -1.8 C 3.38 g/m*3 -1.8 C 0 km/h
119 30-03-2020 09:50:00 -1.7 C 3.44 g/m*3 -1.7 C 0 km/h
120 30-03-2020 09:55:00 -1.7 C 3.44 g/m*3 -1.7 C 3.2 km/h
121 30-03-2020 10:00:00 -1.6 C 3.47 g/m*3 -1.6 C 3.2 km/h
122 30-03-2020 10:05:00 -1.5 C 3.45 g/m*3 -1.5 C 0 km/h
123 30-03-2020 10:10:00 -1.4 C 3.52 g/m*3 -1.4 C 0 km/h
124 30-03-2020 10:15:00 -1.3 C 3.54 g/m*3 -1.3 C 1.6 km/h
125 30-03-2020 10:20:00 -1.2 C 3.57 g/m*3 -1.2 C 1.6 km/h
Sensor: Nr:Datum:Temp:Abs-Feuchte:Windchill:Wind:
Aussen-T/F 126 30-03-2020 10:25:00 -1.1 C 3.5 g/m*3 -1.1 C 1.6 km/h
127 30-03-2020 10:30:00 -0.9 C 3.51 g/m*3 -0.9 C 1.6 km/h
128 30-03-2020 10:35:00 -0.7 C 3.46 g/m*3 -2.99 C 6.4 km/h
129 30-03-2020 10:40:00 -0.3 C 3.37 g/m*3 -4.69 C 14.5 km/h
130 30-03-2020 10:45:00 0.2 C 3.44 g/m*3 -1.95 C 6.4 km/h
131 30-03-2020 10:50:00 0.8 C 3.12 g/m*3 -2.67 C 11.3 km/h
132 30-03-2020 10:55:00 1.3 C 3.5 g/m*3 1.3 C 1.6 km/h
133 30-03-2020 11:00:00 1.4 C 3.2 g/m*3 -2.6 C 14.5 km/h
134 30-03-2020 11:05:00 1.9 C 3.04 g/m*3 -0.54 C 8.1 km/h
135 30-03-2020 11:10:00 2.2 C 3.04 g/m*3 2.2 C 3.2 km/h
136 30-03-2020 11:15:00 2.3 C 3.12 g/m*3 2.3 C 1.6 km/h
137 30-03-2020 11:20:00 2.4 C 2.97 g/m*3 -0.74 C 11.3 km/h
138 30-03-2020 11:25:00 2.7 C 2.91 g/m*3 2.7 C 4.8 km/h
139 30-03-2020 11:30:00 2.8 C 2.93 g/m*3 1.05 C 6.4 km/h
140 30-03-2020 11:35:00 3.1 C 2.93 g/m*3 0.87 C 8.1 km/h
141 30-03-2020 11:40:00 3.3 C 2.85 g/m*3 0.7 C 9.7 km/h
142 30-03-2020 11:45:00 3.3 C 2.79 g/m*3 1.63 C 6.4 km/h
143 30-03-2020 11:50:00 3.4 C 2.87 g/m*3 3.4 C 4.8 km/h
144 30-03-2020 11:55:00 3.6 C 2.72 g/m*3 1.46 C 8.1 km/h
145 30-03-2020 12:00:00 3.7 C 2.8 g/m*3 0.82 C 11.3 km/h
146 30-03-2020 12:05:00 3.8 C 2.7 g/m*3 3.8 C 4.8 km/h
147 30-03-2020 12:10:00 4 C 2.67 g/m*3 1.53 C 9.7 km/h
148 30-03-2020 12:15:00 4.1 C 2.69 g/m*3 4.1 C 4.8 km/h
149 30-03-2020 12:20:00 4.2 C 2.58 g/m*3 4.2 C 4.8 km/h
150 30-03-2020 12:25:00 4.3 C 2.46 g/m*3 4.3 C 4.8 km/h
Sensor: Nr:Datum:Temp:Abs-Feuchte:Windchill:Wind:
Aussen-T/F 151 30-03-2020 12:30:00 4.4 C 2.48 g/m*3 2.4 C 8.1 km/h
152 30-03-2020 12:35:00 4.6 C 2.51 g/m*3 1.91 C 11.3 km/h
153 30-03-2020 12:40:00 4.8 C 2.48 g/m*3 2.87 C 8.1 km/h
154 30-03-2020 12:45:00 4.9 C 2.5 g/m*3 4.9 C 3.2 km/h
155 30-03-2020 12:50:00 5.1 C 2.6 g/m*3 2.51 C 11.3 km/h
156 30-03-2020 12:55:00 5.1 C 2.46 g/m*3 5.1 C 4.8 km/h
157 30-03-2020 13:00:00 5.3 C 2.5 g/m*3 5.3 C 4.8 km/h
158 30-03-2020 13:05:00 5.5 C 2.6 g/m*3 3.7 C 8.1 km/h
159 30-03-2020 13:10:00 5.7 C 2.7 g/m*3 4.4 C 6.4 km/h
160 30-03-2020 13:15:00 5.9 C 2.74 g/m*3 4.63 C 6.4 km/h
161 30-03-2020 13:20:00 5.9 C 2.67 g/m*3 3.48 C 11.3 km/h
162 30-03-2020 13:25:00 5.9 C 2.6 g/m*3 3.8 C 9.7 km/h
163 30-03-2020 13:30:00 6 C 2.76 g/m*3 3.92 C 9.7 km/h
164 30-03-2020 13:35:00 6.2 C 2.72 g/m*3 4.15 C 9.7 km/h
165 30-03-2020 13:40:00 6.3 C 2.66 g/m*3 3.96 C 11.3 km/h
166 30-03-2020 13:45:00 6.4 C 2.68 g/m*3 6.4 C 3.2 km/h
167 30-03-2020 13:50:00 6.3 C 2.66 g/m*3 3.2 C 16.1 km/h
168 30-03-2020 13:55:00 6.4 C 2.68 g/m*3 4.75 C 8.1 km/h
169 30-03-2020 14:00:00 6.6 C 2.64 g/m*3 6.6 C 4.8 km/h
170 30-03-2020 14:05:00 6.7 C 2.66 g/m*3 5.56 C 6.4 km/h
171 30-03-2020 14:10:00 6.8 C 2.52 g/m*3 5.22 C 8.1 km/h
172 30-03-2020 14:15:00 6.8 C 2.52 g/m*3 5.67 C 6.4 km/h
173 30-03-2020 14:20:00 7.1 C 2.57 g/m*3 4.41 C 14.5 km/h
174 30-03-2020 14:25:00 7.3 C 2.61 g/m*3 4.23 C 17.7 km/h
175 30-03-2020 14:30:00 7.3 C 2.77 g/m*3 4.66 C 14.5 km/h
Sensor: Nr:Datum:Temp:Abs-Feuchte:Windchill:Wind:
Aussen-T/F 176 30-03-2020 14:35:00 7.3 C 2.69 g/m*3 5.47 C 9.7 km/h
177 30-03-2020 14:40:00 7.4 C 2.62 g/m*3 5.02 C 12.9 km/h
178 30-03-2020 14:45:00 7.6 C 2.82 g/m*3 5.53 C 11.3 km/h
179 30-03-2020 14:50:00 7.7 C 2.84 g/m*3 5.94 C 9.7 km/h
180 30-03-2020 14:55:00 7.9 C 2.96 g/m*3 5.89 C 11.3 km/h
181 30-03-2020 15:00:00 8.1 C 2.91 g/m*3 6.75 C 8.1 km/h
182 30-03-2020 15:05:00 7.9 C 2.87 g/m*3 5.18 C 16.1 km/h
183 30-03-2020 15:10:00 7.8 C 2.94 g/m*3 5.77 C 11.3 km/h
184 30-03-2020 15:15:00 7.8 C 2.94 g/m*3 5.06 C 16.1 km/h
185 30-03-2020 15:20:00 8 C 2.98 g/m*3 5.75 C 12.9 km/h
186 30-03-2020 15:25:00 8 C 2.98 g/m*3 5.3 C 16.1 km/h
187 30-03-2020 15:30:00 8 C 3.14 g/m*3 6.64 C 8.1 km/h
188 30-03-2020 15:35:00 8.2 C 3.18 g/m*3 5.99 C 12.9 km/h
189 30-03-2020 15:40:00 8.2 C 3.1 g/m*3 5.99 C 12.9 km/h
190 30-03-2020 15:45:00 8.3 C 3.12 g/m*3 5.68 C 16.1 km/h
191 30-03-2020 15:50:00 8.3 C 3.2 g/m*3 6.37 C 11.3 km/h
192 30-03-2020 15:55:00 8.3 C 3.12 g/m*3 6.12 C 12.9 km/h
193 30-03-2020 16:00:00 8.4 C 3.14 g/m*3 6.01 C 14.5 km/h
194 30-03-2020 16:05:00 8.6 C 3.35 g/m*3 6.48 C 12.9 km/h
195 30-03-2020 16:10:00 8.8 C 3.31 g/m*3 6.5 C 14.5 km/h
196 30-03-2020 16:15:00 9.2 C 3.3 g/m*3 6.99 C 14.5 km/h
197 30-03-2020 16:20:00 9.2 C 3.39 g/m*3 6.99 C 14.5 km/h
198 30-03-2020 16:25:00 9.3 C 3.42 g/m*3 7.33 C 12.9 km/h
199 30-03-2020 16:30:00 9 C 3.35 g/m*3 7.21 C 11.3 km/h
200 30-03-2020 16:35:00 8.8 C 3.39 g/m*3 6.97 C 11.3 km/h
Sensor: Nr:Datum:Temp:Abs-Feuchte:Windchill:Wind:
Aussen-T/F 201 30-03-2020 16:40:00 9.1 C 3.55 g/m*3 7.33 C 11.3 km/h
202 30-03-2020 16:45:00 9.4 C 3.62 g/m*3 7.97 C 9.7 km/h
203 30-03-2020 16:50:00 9.5 C 3.55 g/m*3 7.58 C 12.9 km/h
204 30-03-2020 16:55:00 9.4 C 3.62 g/m*3 7.46 C 12.9 km/h
205 30-03-2020 17:00:00 9.1 C 3.55 g/m*3 6.87 C 14.5 km/h
206 30-03-2020 17:05:00 9.2 C 3.75 g/m*3 6.99 C 14.5 km/h
207 30-03-2020 17:10:00 9.8 C 3.71 g/m*3 7.54 C 16.1 km/h
208 30-03-2020 17:15:00 9.9 C 3.73 g/m*3 7.48 C 17.7 km/h
209 30-03-2020 17:20:00 9.8 C 3.62 g/m*3 7.54 C 16.1 km/h
210 30-03-2020 17:25:00 9.9 C 3.64 g/m*3 7.85 C 14.5 km/h
211 30-03-2020 17:30:00 9.6 C 3.66 g/m*3 7.29 C 16.1 km/h
212 30-03-2020 17:35:00 9.7 C 3.78 g/m*3 7.41 C 16.1 km/h
213 30-03-2020 17:40:00 9.7 C 3.87 g/m*3 7.23 C 17.7 km/h
214 30-03-2020 17:45:00 9.4 C 3.89 g/m*3 7.24 C 14.5 km/h
215 30-03-2020 17:50:00 9.2 C 3.93 g/m*3 6.61 C 17.7 km/h
216 30-03-2020 17:55:00 8.9 C 3.94 g/m*3 6.85 C 12.9 km/h
217 30-03-2020 18:00:00 8.8 C 4 g/m*3 5.34 C 25.7 km/h
218 30-03-2020 18:05:00 8.5 C 3.93 g/m*3 6.36 C 12.9 km/h
219 30-03-2020 18:10:00 8.2 C 3.94 g/m*3 6.25 C 11.3 km/h
220 30-03-2020 18:15:00 7.9 C 4.02 g/m*3 6.18 C 9.7 km/h
221 30-03-2020 18:20:00 8.1 C 4.16 g/m*3 6.13 C 11.3 km/h
222 30-03-2020 18:25:00 8.4 C 4.16 g/m*3 6.24 C 12.9 km/h
223 30-03-2020 18:30:00 8.7 C 4.15 g/m*3 6.85 C 11.3 km/h
224 30-03-2020 18:35:00 8.9 C 4.2 g/m*3 7.09 C 11.3 km/h
225 30-03-2020 18:40:00 8.8 C 4.09 g/m*3 6.3 C 16.1 km/h
Sensor: Nr:Datum:Temp:Abs-Feuchte:Windchill:Wind:
Aussen-T/F 226 30-03-2020 18:45:00 8.7 C 4.15 g/m*3 6.6 C 12.9 km/h
227 30-03-2020 18:50:00 8.7 C 4.24 g/m*3 7.46 C 8.1 km/h
228 30-03-2020 18:55:00 8.8 C 4.26 g/m*3 6.97 C 11.3 km/h
229 30-03-2020 19:00:00 8.6 C 4.21 g/m*3 6.73 C 11.3 km/h
230 30-03-2020 19:05:00 8.5 C 4.27 g/m*3 6.36 C 12.9 km/h
231 30-03-2020 19:10:00 8.3 C 4.21 g/m*3 5.89 C 14.5 km/h
232 30-03-2020 19:15:00 8.1 C 4.24 g/m*3 6.42 C 9.7 km/h
233 30-03-2020 19:20:00 7.8 C 4.24 g/m*3 7.8 C 4.8 km/h
234 30-03-2020 19:25:00 7.6 C 4.19 g/m*3 6.16 C 8.1 km/h
235 30-03-2020 19:30:00 7.4 C 4.21 g/m*3 5.58 C 9.7 km/h
236 30-03-2020 19:35:00 7.3 C 4.27 g/m*3 5.81 C 8.1 km/h
237 30-03-2020 19:40:00 7.2 C 4.24 g/m*3 7.2 C 4.8 km/h
238 30-03-2020 19:45:00 7 C 4.26 g/m*3 7 C 3.2 km/h
239 30-03-2020 19:50:00 6.8 C 4.28 g/m*3 6.8 C 1.6 km/h
240 30-03-2020 19:55:00 6.4 C 4.32 g/m*3 6.4 C 0 km/h
241 30-03-2020 20:00:00 5.9 C 4.25 g/m*3 5.9 C 0 km/h
242 30-03-2020 20:05:00 5.4 C 4.26 g/m*3 5.4 C 0 km/h
243 30-03-2020 20:10:00 4.9 C 4.19 g/m*3 4.9 C 0 km/h
244 30-03-2020 20:15:00 4.6 C 4.23 g/m*3 4.6 C 0 km/h
245 30-03-2020 20:20:00 4.3 C 4.22 g/m*3 4.3 C 1.6 km/h
246 30-03-2020 20:25:00 4.2 C 4.32 g/m*3 4.2 C 1.6 km/h
247 30-03-2020 20:30:00 4.1 C 4.35 g/m*3 4.1 C 3.2 km/h
248 30-03-2020 20:35:00 3.9 C 4.36 g/m*3 3.9 C 4.8 km/h
249 30-03-2020 20:40:00 3.8 C 4.33 g/m*3 3.8 C 4.8 km/h
250 30-03-2020 20:45:00 3.7 C 4.3 g/m*3 3.7 C 1.6 km/h
Sensor: Nr:Datum:Temp:Abs-Feuchte:Windchill:Wind:
Aussen-T/F 251 30-03-2020 20:50:00 3.6 C 4.33 g/m*3 3.6 C 4.8 km/h
252 30-03-2020 20:55:00 3.6 C 4.39 g/m*3 3.6 C 4.8 km/h
253 30-03-2020 21:00:00 3.5 C 4.43 g/m*3 1.86 C 6.4 km/h
254 30-03-2020 21:05:00 3.6 C 4.52 g/m*3 3.6 C 4.8 km/h
255 30-03-2020 21:10:00 3.6 C 4.52 g/m*3 3.6 C 4.8 km/h
256 30-03-2020 21:15:00 3.7 C 4.55 g/m*3 3.7 C 4.8 km/h
257 30-03-2020 21:20:00 3.7 C 4.61 g/m*3 3.7 C 4.8 km/h
258 30-03-2020 21:25:00 3.8 C 4.64 g/m*3 3.8 C 4.8 km/h
259 30-03-2020 21:30:00 3.8 C 4.64 g/m*3 3.8 C 3.2 km/h
260 30-03-2020 21:35:00 3.9 C 4.67 g/m*3 3.9 C 1.6 km/h
261 30-03-2020 21:40:00 4 C 4.7 g/m*3 4 C 0 km/h
262 30-03-2020 21:45:00 4 C 4.7 g/m*3 4 C 3.2 km/h
263 30-03-2020 21:50:00 4 C 4.7 g/m*3 4 C 3.2 km/h
264 30-03-2020 21:55:00 4.1 C 4.74 g/m*3 4.1 C 1.6 km/h
265 30-03-2020 22:00:00 4 C 4.7 g/m*3 4 C 0 km/h
266 30-03-2020 22:05:00 4 C 4.77 g/m*3 4 C 0 km/h
267 30-03-2020 22:10:00 3.9 C 4.74 g/m*3 3.9 C 0 km/h
268 30-03-2020 22:15:00 4 C 4.7 g/m*3 4 C 3.2 km/h
269 30-03-2020 22:20:00 4 C 4.7 g/m*3 4 C 0 km/h
270 30-03-2020 22:25:00 4.1 C 4.8 g/m*3 4.1 C 0 km/h
271 30-03-2020 22:30:00 4.1 C 4.67 g/m*3 4.1 C 3.2 km/h
272 30-03-2020 22:35:00 4.1 C 4.67 g/m*3 4.1 C 0 km/h
273 30-03-2020 22:40:00 4.2 C 4.7 g/m*3 4.2 C 0 km/h
274 30-03-2020 22:45:00 4.2 C 4.64 g/m*3 4.2 C 3.2 km/h
275 30-03-2020 22:50:00 4.3 C 4.67 g/m*3 4.3 C 1.6 km/h
Sensor: Nr:Datum:Temp:Abs-Feuchte:Windchill:Wind:
Aussen-T/F 276 30-03-2020 22:55:00 4.3 C 4.74 g/m*3 4.3 C 0 km/h
277 30-03-2020 23:00:00 4.3 C 4.67 g/m*3 4.3 C 4.8 km/h
278 30-03-2020 23:05:00 4.3 C 4.67 g/m*3 4.3 C 0 km/h
279 30-03-2020 23:10:00 4.3 C 4.67 g/m*3 4.3 C 3.2 km/h
280 30-03-2020 23:15:00 4.4 C 4.7 g/m*3 4.4 C 0 km/h
281 30-03-2020 23:20:00 4.4 C 4.77 g/m*3 4.4 C 0 km/h
282 30-03-2020 23:25:00 4.4 C 4.7 g/m*3 4.4 C 1.6 km/h
283 30-03-2020 23:30:00 4.4 C 4.7 g/m*3 4.4 C 0 km/h
284 30-03-2020 23:35:00 4.4 C 4.7 g/m*3 4.4 C 3.2 km/h
285 30-03-2020 23:40:00 4.4 C 4.77 g/m*3 4.4 C 1.6 km/h
286 30-03-2020 23:45:00 4.4 C 4.77 g/m*3 4.4 C 1.6 km/h
287 30-03-2020 23:50:00 4.4 C 4.77 g/m*3 4.4 C 0 km/h
288 30-03-2020 23:55:00 4.4 C 4.7 g/m*3 4.4 C 1.6 km/h
289 31-03-2020 00:00:00 4.4 C 4.7 g/m*3 4.4 C 1.6 km/h
290 31-03-2020 00:05:00 4.4 C 4.7 g/m*3 4.4 C 0 km/h
291 31-03-2020 00:10:00 4.4 C 4.7 g/m*3 4.4 C 0 km/h
292 31-03-2020 00:15:00 4.5 C 4.73 g/m*3 4.5 C 3.2 km/h
293 31-03-2020 00:20:00 4.5 C 4.73 g/m*3 4.5 C 3.2 km/h
294 31-03-2020 00:25:00 4.5 C 4.8 g/m*3 4.5 C 3.2 km/h
295 31-03-2020 00:30:00 4.5 C 4.8 g/m*3 4.5 C 1.6 km/h
296 31-03-2020 00:35:00 4.4 C 4.77 g/m*3 4.4 C 0 km/h
297 31-03-2020 00:40:00 4.5 C 4.8 g/m*3 4.5 C 0 km/h
298 31-03-2020 00:45:00 4.5 C 4.8 g/m*3 4.5 C 0 km/h
299 31-03-2020 00:50:00 4.6 C 4.83 g/m*3 4.6 C 0 km/h
300 31-03-2020 00:55:00 4.6 C 4.96 g/m*3 4.6 C 4.8 km/h
Sensor: Nr:Datum:Temp:Abs-Feuchte:Windchill:Wind:
Aussen-T/F 301 31-03-2020 01:00:00 4.7 C 5 g/m*3 4.7 C 0 km/h
302 31-03-2020 01:05:00 4.7 C 5.06 g/m*3 4.7 C 1.6 km/h
303 31-03-2020 01:10:00 4.7 C 5.06 g/m*3 4.7 C 1.6 km/h
304 31-03-2020 01:15:00 4.7 C 5.06 g/m*3 4.7 C 1.6 km/h
305 31-03-2020 01:20:00 4.7 C 5.13 g/m*3 4.7 C 1.6 km/h
306 31-03-2020 01:25:00 4.6 C 5.16 g/m*3 4.6 C 1.6 km/h
307 31-03-2020 01:30:00 4.5 C 5.19 g/m*3 4.5 C 3.2 km/h
308 31-03-2020 01:35:00 4.5 C 5.26 g/m*3 4.5 C 0 km/h
309 31-03-2020 01:40:00 4.5 C 5.26 g/m*3 3.02 C 6.4 km/h
310 31-03-2020 01:45:00 4.5 C 5.32 g/m*3 4.5 C 1.6 km/h
311 31-03-2020 01:50:00 4.6 C 5.36 g/m*3 4.6 C 1.6 km/h
312 31-03-2020 01:55:00 4.6 C 5.43 g/m*3 4.6 C 4.8 km/h
313 31-03-2020 02:00:00 4.6 C 5.43 g/m*3 4.6 C 3.2 km/h
314 31-03-2020 02:05:00 4.5 C 5.32 g/m*3 4.5 C 0 km/h
315 31-03-2020 02:10:00 4.4 C 5.35 g/m*3 4.4 C 4.8 km/h
316 31-03-2020 02:15:00 4.3 C 5.32 g/m*3 4.3 C 4.8 km/h
317 31-03-2020 02:20:00 4.2 C 5.35 g/m*3 4.2 C 3.2 km/h
318 31-03-2020 02:25:00 4.1 C 5.31 g/m*3 4.1 C 0 km/h
319 31-03-2020 02:30:00 4.1 C 5.38 g/m*3 4.1 C 0 km/h
320 31-03-2020 02:35:00 4.1 C 5.38 g/m*3 4.1 C 0 km/h
321 31-03-2020 02:40:00 4 C 5.34 g/m*3 4 C 0 km/h
322 31-03-2020 02:45:00 3.9 C 5.31 g/m*3 3.9 C 0 km/h
323 31-03-2020 02:50:00 3.8 C 5.27 g/m*3 3.8 C 0 km/h
324 31-03-2020 02:55:00 3.6 C 5.2 g/m*3 3.6 C 0 km/h
325 31-03-2020 03:00:00 3.4 C 5.19 g/m*3 3.4 C 1.6 km/h
Sensor: Nr:Datum:Temp:Abs-Feuchte:Windchill:Wind:
Aussen-T/F 326 31-03-2020 03:05:00 3.4 C 5.25 g/m*3 3.4 C 0 km/h
327 31-03-2020 03:10:00 3.3 C 5.22 g/m*3 3.3 C 0 km/h
328 31-03-2020 03:15:00 3.2 C 5.18 g/m*3 3.2 C 3.2 km/h
329 31-03-2020 03:20:00 3.2 C 5.24 g/m*3 3.2 C 3.2 km/h
330 31-03-2020 03:25:00 3.1 C 5.21 g/m*3 3.1 C 1.6 km/h
331 31-03-2020 03:30:00 3.1 C 5.27 g/m*3 3.1 C 1.6 km/h
332 31-03-2020 03:35:00 3.1 C 5.27 g/m*3 3.1 C 1.6 km/h
333 31-03-2020 03:40:00 3.1 C 5.27 g/m*3 3.1 C 0 km/h
334 31-03-2020 03:45:00 3 C 5.23 g/m*3 3 C 0 km/h
335 31-03-2020 03:50:00 2.9 C 5.2 g/m*3 2.9 C 0 km/h
336 31-03-2020 03:55:00 2.9 C 5.26 g/m*3 2.9 C 0 km/h
337 31-03-2020 04:00:00 3 C 5.29 g/m*3 3 C 0 km/h
338 31-03-2020 04:05:00 3.1 C 5.39 g/m*3 3.1 C 0 km/h
339 31-03-2020 04:10:00 3.2 C 5.42 g/m*3 3.2 C 0 km/h
340 31-03-2020 04:15:00 3.2 C 5.42 g/m*3 3.2 C 0 km/h
341 31-03-2020 04:20:00 3.3 C 5.46 g/m*3 3.3 C 1.6 km/h
342 31-03-2020 04:25:00 3.4 C 5.5 g/m*3 3.4 C 0 km/h
343 31-03-2020 04:30:00 3.4 C 5.5 g/m*3 3.4 C 0 km/h
344 31-03-2020 04:35:00 3.4 C 5.5 g/m*3 3.4 C 0 km/h
345 31-03-2020 04:40:00 3.5 C 5.53 g/m*3 3.5 C 0 km/h
346 31-03-2020 04:45:00 3.5 C 5.53 g/m*3 3.5 C 0 km/h
347 31-03-2020 04:50:00 3.6 C 5.57 g/m*3 3.6 C 1.6 km/h
348 31-03-2020 04:55:00 3.6 C 5.57 g/m*3 3.6 C 0 km/h
349 31-03-2020 05:00:00 3.7 C 5.61 g/m*3 3.7 C 0 km/h
350 31-03-2020 05:05:00 3.7 C 5.61 g/m*3 3.7 C 0 km/h
Sensor: Nr:Datum:Temp:Abs-Feuchte:Windchill:Wind:
Aussen-T/F 351 31-03-2020 05:10:00 3.7 C 5.55 g/m*3 3.7 C 0 km/h
352 31-03-2020 05:15:00 3.7 C 5.55 g/m*3 3.7 C 0 km/h
353 31-03-2020 05:20:00 3.6 C 5.51 g/m*3 3.6 C 0 km/h
354 31-03-2020 05:25:00 3.4 C 5.44 g/m*3 3.4 C 0 km/h
355 31-03-2020 05:30:00 3.3 C 5.4 g/m*3 3.3 C 0 km/h
356 31-03-2020 05:35:00 3.2 C 5.36 g/m*3 3.2 C 1.6 km/h
357 31-03-2020 05:40:00 3.1 C 5.27 g/m*3 3.1 C 1.6 km/h
358 31-03-2020 05:45:00 2.8 C 5.16 g/m*3 2.8 C 1.6 km/h
359 31-03-2020 05:50:00 2.7 C 5.13 g/m*3 2.7 C 0 km/h
360 31-03-2020 05:55:00 2.4 C 5.02 g/m*3 2.4 C 3.2 km/h
361 31-03-2020 06:00:00 2.3 C 4.99 g/m*3 2.3 C 3.2 km/h
362 31-03-2020 06:05:00 2.2 C 5.01 g/m*3 2.2 C 1.6 km/h
363 31-03-2020 06:10:00 2.1 C 4.98 g/m*3 2.1 C 1.6 km/h
364 31-03-2020 06:15:00 1.9 C 4.91 g/m*3 1.9 C 0 km/h
365 31-03-2020 06:20:00 1.9 C 4.97 g/m*3 1.9 C 0 km/h
366 31-03-2020 06:25:00 1.9 C 4.97 g/m*3 1.9 C 0 km/h
367 31-03-2020 06:30:00 2 C 5.06 g/m*3 2 C 0 km/h
368 31-03-2020 06:35:00 2.2 C 5.18 g/m*3 2.2 C 0 km/h
369 31-03-2020 06:40:00 2.3 C 5.22 g/m*3 2.3 C 0 km/h
370 31-03-2020 06:45:00 2.3 C 5.22 g/m*3 2.3 C 0 km/h
371 31-03-2020 06:50:00 2.4 C 5.25 g/m*3 2.4 C 0 km/h
372 31-03-2020 06:55:00 2.5 C 5.29 g/m*3 2.5 C 0 km/h
373 31-03-2020 07:00:00 2.6 C 5.32 g/m*3 2.6 C 0 km/h
374 31-03-2020 07:05:00 2.6 C 5.32 g/m*3 2.6 C 0 km/h
375 31-03-2020 07:10:00 2.7 C 5.36 g/m*3 2.7 C 0 km/h
Sensor: Nr:Datum:Temp:Abs-Feuchte:Windchill:Wind:
Aussen-T/F 376 31-03-2020 07:15:00 2.7 C 5.36 g/m*3 2.7 C 0 km/h
377 31-03-2020 07:20:00 2.7 C 5.36 g/m*3 2.7 C 0 km/h
378 31-03-2020 07:25:00 2.7 C 5.36 g/m*3 2.7 C 0 km/h
379 31-03-2020 07:30:00 2.7 C 5.36 g/m*3 2.7 C 0 km/h
380 31-03-2020 07:35:00 2.7 C 5.36 g/m*3 2.7 C 0 km/h
381 31-03-2020 07:40:00 2.7 C 5.36 g/m*3 2.7 C 0 km/h
382 31-03-2020 07:45:00 2.6 C 5.27 g/m*3 2.6 C 0 km/h
383 31-03-2020 07:50:00 2.6 C 5.32 g/m*3 2.6 C 0 km/h
384 31-03-2020 07:55:00 2.6 C 5.32 g/m*3 2.6 C 0 km/h
385 31-03-2020 08:00:00 2.7 C 5.36 g/m*3 2.7 C 0 km/h
386 31-03-2020 08:05:00 2.8 C 5.4 g/m*3 2.8 C 0 km/h
387 31-03-2020 08:10:00 2.9 C 5.43 g/m*3 2.9 C 0 km/h
388 31-03-2020 08:15:00 3.1 C 5.57 g/m*3 3.1 C 0 km/h
389 31-03-2020 08:20:00 3.3 C 5.58 g/m*3 3.3 C 0 km/h
390 31-03-2020 08:25:00 3.4 C 5.62 g/m*3 3.4 C 0 km/h
391 31-03-2020 08:30:00 3.6 C 5.63 g/m*3 3.6 C 0 km/h
392 31-03-2020 08:35:00 3.7 C 5.67 g/m*3 3.7 C 1.6 km/h
393 31-03-2020 08:40:00 3.8 C 5.58 g/m*3 2.21 C 6.4 km/h
394 31-03-2020 08:45:00 3.9 C 5.49 g/m*3 1.82 C 8.1 km/h
395 31-03-2020 08:50:00 4.1 C 5.44 g/m*3 2.05 C 8.1 km/h
396 31-03-2020 08:55:00 4.2 C 5.35 g/m*3 2.67 C 6.4 km/h
397 31-03-2020 09:00:00 4.3 C 5.25 g/m*3 1.55 C 11.3 km/h
398 31-03-2020 09:05:00 4.4 C 5.22 g/m*3 2.4 C 8.1 km/h
399 31-03-2020 09:10:00 4.4 C 5.09 g/m*3 4.4 C 4.8 km/h
400 31-03-2020 09:15:00 4.4 C 5.09 g/m*3 2.9 C 6.4 km/h
Sensor: Nr:Datum:Temp:Abs-Feuchte:Windchill:Wind:
Aussen-T/F 401 31-03-2020 09:20:00 4.4 C 5.03 g/m*3 2.01 C 9.7 km/h
402 31-03-2020 09:25:00 4.5 C 5.06 g/m*3 2.52 C 8.1 km/h
403 31-03-2020 09:30:00 4.5 C 5.06 g/m*3 4.5 C 4.8 km/h
404 31-03-2020 09:35:00 4.6 C 5.03 g/m*3 2.64 C 8.1 km/h
405 31-03-2020 09:40:00 4.6 C 4.96 g/m*3 3.13 C 6.4 km/h
406 31-03-2020 09:45:00 4.6 C 5.03 g/m*3 4.6 C 4.8 km/h
407 31-03-2020 09:50:00 4.7 C 4.86 g/m*3 1.73 C 12.9 km/h
408 31-03-2020 09:55:00 4.8 C 5.03 g/m*3 4.8 C 4.8 km/h
409 31-03-2020 10:00:00 4.9 C 5 g/m*3 3.48 C 6.4 km/h
410 31-03-2020 10:05:00 4.9 C 4.86 g/m*3 2.27 C 11.3 km/h
411 31-03-2020 10:10:00 4.9 C 4.93 g/m*3 2.27 C 11.3 km/h
412 31-03-2020 10:15:00 4.9 C 4.93 g/m*3 2.99 C 8.1 km/h
413 31-03-2020 10:20:00 4.9 C 4.93 g/m*3 2.27 C 11.3 km/h
414 31-03-2020 10:25:00 4.9 C 4.86 g/m*3 4.9 C 4.8 km/h
415 31-03-2020 10:30:00 4.8 C 4.83 g/m*3 4.8 C 4.8 km/h
416 31-03-2020 10:35:00 4.8 C 4.83 g/m*3 1.58 C 14.5 km/h
417 31-03-2020 10:40:00 4.8 C 4.76 g/m*3 2.49 C 9.7 km/h
418 31-03-2020 10:45:00 4.8 C 4.76 g/m*3 2.49 C 9.7 km/h
419 31-03-2020 10:50:00 4.8 C 4.69 g/m*3 2.87 C 8.1 km/h
420 31-03-2020 10:55:00 4.8 C 4.69 g/m*3 2.49 C 9.7 km/h
421 31-03-2020 11:00:00 4.8 C 4.69 g/m*3 2.49 C 9.7 km/h
422 31-03-2020 11:05:00 4.8 C 4.69 g/m*3 2.87 C 8.1 km/h
423 31-03-2020 11:10:00 4.8 C 4.63 g/m*3 1.11 C 17.7 km/h
424 31-03-2020 11:15:00 4.9 C 4.59 g/m*3 2.61 C 9.7 km/h
425 31-03-2020 11:20:00 5.1 C 4.65 g/m*3 2.84 C 9.7 km/h
Sensor: Nr:Datum:Temp:Abs-Feuchte:Windchill:Wind:
Aussen-T/F 426 31-03-2020 11:25:00 5.2 C 4.61 g/m*3 2.96 C 9.7 km/h
427 31-03-2020 11:30:00 5.4 C 4.6 g/m*3 4.06 C 6.4 km/h
428 31-03-2020 11:35:00 5.5 C 4.57 g/m*3 3.32 C 9.7 km/h
429 31-03-2020 11:40:00 5.6 C 4.52 g/m*3 2.83 C 12.9 km/h
430 31-03-2020 11:45:00 5.6 C 4.52 g/m*3 2.83 C 12.9 km/h
431 31-03-2020 11:50:00 5.6 C 4.52 g/m*3 2.33 C 16.1 km/h
432 31-03-2020 11:55:00 5.7 C 4.41 g/m*3 2.95 C 12.9 km/h
433 31-03-2020 12:00:00 5.8 C 4.44 g/m*3 4.52 C 6.4 km/h
434 31-03-2020 12:05:00 5.9 C 4.4 g/m*3 4.17 C 8.1 km/h
435 31-03-2020 12:10:00 6 C 4.43 g/m*3 6 C 3.2 km/h
436 31-03-2020 12:15:00 6.3 C 4.29 g/m*3 3.68 C 12.9 km/h
437 31-03-2020 12:20:00 6.6 C 4.23 g/m*3 4.32 C 11.3 km/h
438 31-03-2020 12:25:00 6.6 C 4.15 g/m*3 3.57 C 16.1 km/h
439 31-03-2020 12:30:00 6.8 C 4.21 g/m*3 4.29 C 12.9 km/h
440 31-03-2020 12:35:00 6.9 C 4.08 g/m*3 4.68 C 11.3 km/h
441 31-03-2020 12:40:00 7.2 C 4.24 g/m*3 4.31 C 16.1 km/h
442 31-03-2020 12:45:00 7.2 C 4.16 g/m*3 4.77 C 12.9 km/h
443 31-03-2020 12:50:00 7.2 C 4.16 g/m*3 5.04 C 11.3 km/h
444 31-03-2020 12:55:00 7.2 C 4.24 g/m*3 5.35 C 9.7 km/h
445 31-03-2020 13:00:00 7.2 C 4.08 g/m*3 4.53 C 14.5 km/h
446 31-03-2020 13:05:00 7.1 C 3.98 g/m*3 5.23 C 9.7 km/h
447 31-03-2020 13:10:00 6.9 C 3.93 g/m*3 5.34 C 8.1 km/h
448 31-03-2020 13:15:00 7 C 3.95 g/m*3 5.11 C 9.7 km/h
449 31-03-2020 13:20:00 7 C 3.8 g/m*3 4.8 C 11.3 km/h
450 31-03-2020 13:25:00 7.1 C 3.82 g/m*3 4.65 C 12.9 km/h
Sensor: Nr:Datum:Temp:Abs-Feuchte:Windchill:Wind:
Aussen-T/F 451 31-03-2020 13:30:00 7.2 C 3.77 g/m*3 5.69 C 8.1 km/h
452 31-03-2020 13:35:00 7.4 C 3.82 g/m*3 5.02 C 12.9 km/h
453 31-03-2020 13:40:00 7.7 C 3.73 g/m*3 4.73 C 17.7 km/h
454 31-03-2020 13:45:00 7.7 C 3.57 g/m*3 5.38 C 12.9 km/h
455 31-03-2020 13:50:00 7.8 C 3.59 g/m*3 5.51 C 12.9 km/h
456 31-03-2020 13:55:00 8 C 3.55 g/m*3 5.75 C 12.9 km/h
457 31-03-2020 14:00:00 8.2 C 3.6 g/m*3 5.55 C 16.1 km/h
458 31-03-2020 14:05:00 8.2 C 3.6 g/m*3 5.99 C 12.9 km/h
459 31-03-2020 14:10:00 8.2 C 3.68 g/m*3 5.76 C 14.5 km/h
460 31-03-2020 14:15:00 8.5 C 3.76 g/m*3 6.61 C 11.3 km/h
461 31-03-2020 14:20:00 8.8 C 3.92 g/m*3 6.97 C 11.3 km/h
462 31-03-2020 14:25:00 8.8 C 3.83 g/m*3 5.93 C 19.3 km/h
463 31-03-2020 14:30:00 8.7 C 3.81 g/m*3 6.17 C 16.1 km/h
464 31-03-2020 14:35:00 8.8 C 3.74 g/m*3 6.72 C 12.9 km/h
465 31-03-2020 14:40:00 8.7 C 3.63 g/m*3 6.17 C 16.1 km/h
466 31-03-2020 14:45:00 8.8 C 3.66 g/m*3 6.72 C 12.9 km/h
467 31-03-2020 14:50:00 8.8 C 3.66 g/m*3 6.5 C 14.5 km/h
468 31-03-2020 14:55:00 8.8 C 3.66 g/m*3 6.97 C 11.3 km/h
469 31-03-2020 15:00:00 8.9 C 3.68 g/m*3 6.85 C 12.9 km/h
470 31-03-2020 15:05:00 8.9 C 3.42 g/m*3 7.09 C 11.3 km/h
471 31-03-2020 15:10:00 8.8 C 3.66 g/m*3 6.3 C 16.1 km/h
472 31-03-2020 15:15:00 8.9 C 3.59 g/m*3 6.62 C 14.5 km/h
473 31-03-2020 15:20:00 8.9 C 3.59 g/m*3 6.62 C 14.5 km/h
474 31-03-2020 15:25:00 9 C 3.61 g/m*3 8.21 C 6.4 km/h
475 31-03-2020 15:30:00 9.1 C 3.64 g/m*3 7.33 C 11.3 km/h
Sensor: Nr:Datum:Temp:Abs-Feuchte:Windchill:Wind:
Aussen-T/F 476 31-03-2020 15:35:00 9.1 C 3.55 g/m*3 7.33 C 11.3 km/h
477 31-03-2020 15:40:00 9.1 C 3.55 g/m*3 6.31 C 19.3 km/h
478 31-03-2020 15:45:00 9.2 C 3.57 g/m*3 7.21 C 12.9 km/h
479 31-03-2020 15:50:00 9.3 C 3.5 g/m*3 7.12 C 14.5 km/h
480 31-03-2020 15:55:00 9.3 C 3.5 g/m*3 7.33 C 12.9 km/h
481 31-03-2020 16:00:00 9.5 C 3.64 g/m*3 7.58 C 12.9 km/h
482 31-03-2020 16:05:00 9.6 C 3.57 g/m*3 7.94 C 11.3 km/h
483 31-03-2020 16:10:00 9.6 C 3.48 g/m*3 6.94 C 19.3 km/h
484 31-03-2020 16:15:00 9.6 C 3.57 g/m*3 8.52 C 8.1 km/h
485 31-03-2020 16:20:00 9.7 C 3.6 g/m*3 7.41 C 16.1 km/h
486 31-03-2020 16:25:00 9.8 C 3.43 g/m*3 7.54 C 16.1 km/h
487 31-03-2020 16:30:00 9.9 C 3.45 g/m*3 7.66 C 16.1 km/h
488 31-03-2020 16:35:00 10 C 3.66 g/m*3 8.19 C 12.9 km/h
489 31-03-2020 16:40:00 10.1 C 3.5 g/m*3 7.42 C 20.9 km/h
490 31-03-2020 16:45:00 9.9 C 3.36 g/m*3 8.06 C 12.9 km/h
491 31-03-2020 16:50:00 10 C 3.57 g/m*3 7.61 C 17.7 km/h
492 31-03-2020 16:55:00 10.1 C 3.5 g/m*3 7.57 C 19.3 km/h
493 31-03-2020 17:00:00 10 C 3.38 g/m*3 8.42 C 11.3 km/h
494 31-03-2020 17:05:00 10.2 C 3.71 g/m*3 9.22 C 8.1 km/h
495 31-03-2020 17:10:00 10.6 C 3.51 g/m*3 9.69 C 8.1 km/h
496 31-03-2020 17:15:00 10.9 C 3.58 g/m*3 10.04 C 8.1 km/h
497 31-03-2020 17:20:00 11.2 C 3.65 g/m*3 11.2 C 9.7 km/h
498 31-03-2020 17:25:00 11.3 C 3.67 g/m*3 11.3 C 9.7 km/h
499 31-03-2020 17:30:00 11.3 C 3.47 g/m*3 11.3 C 6.4 km/h
500 31-03-2020 17:35:00 11.1 C 3.53 g/m*3 11.1 C 16.1 km/h
Sensor: Nr:Datum:Temp:Abs-Feuchte:Windchill:Wind:
Aussen-T/F 501 31-03-2020 17:40:00 11.1 C 3.53 g/m*3 11.1 C 6.4 km/h
502 31-03-2020 17:45:00 11 C 3.6 g/m*3 9.4 C 12.9 km/h
503 31-03-2020 17:50:00 10.9 C 3.38 g/m*3 8.9 C 16.1 km/h
504 31-03-2020 17:55:00 10.5 C 3.39 g/m*3 8.59 C 14.5 km/h
505 31-03-2020 18:00:00 10.5 C 3.39 g/m*3 8.8 C 12.9 km/h
506 31-03-2020 18:05:00 10.7 C 3.44 g/m*3 8.65 C 16.1 km/h
507 31-03-2020 18:10:00 10.8 C 3.56 g/m*3 10.8 C 4.8 km/h
508 31-03-2020 18:15:00 11.2 C 3.65 g/m*3 11.2 C 3.2 km/h
509 31-03-2020 18:20:00 11.3 C 3.57 g/m*3 11.3 C 16.1 km/h
510 31-03-2020 18:25:00 10.9 C 3.48 g/m*3 9.28 C 12.9 km/h
511 31-03-2020 18:30:00 10.7 C 3.63 g/m*3 9.52 C 9.7 km/h
512 31-03-2020 18:35:00 10.7 C 3.54 g/m*3 9.81 C 8.1 km/h
513 31-03-2020 18:40:00 10.6 C 3.51 g/m*3 9.14 C 11.3 km/h
514 31-03-2020 18:45:00 10.6 C 3.61 g/m*3 10.6 C 4.8 km/h
515 31-03-2020 18:50:00 10.7 C 3.44 g/m*3 10.18 C 6.4 km/h
516 31-03-2020 18:55:00 10.6 C 3.51 g/m*3 10.6 C 4.8 km/h
517 31-03-2020 19:00:00 10.6 C 3.51 g/m*3 9.69 C 8.1 km/h
518 31-03-2020 19:05:00 10.3 C 3.54 g/m*3 8.78 C 11.3 km/h
519 31-03-2020 19:10:00 10.1 C 3.4 g/m*3 8.8 C 9.7 km/h
520 31-03-2020 19:15:00 10.1 C 3.5 g/m*3 10.1 C 3.2 km/h
521 31-03-2020 19:20:00 10.1 C 3.5 g/m*3 9.1 C 8.1 km/h
522 31-03-2020 19:25:00 9.9 C 3.45 g/m*3 9.9 C 3.2 km/h
523 31-03-2020 19:30:00 9.8 C 3.53 g/m*3 9.8 C 4.8 km/h
524 31-03-2020 19:35:00 9.7 C 3.78 g/m*3 9.7 C 1.6 km/h
525 31-03-2020 19:40:00 9.4 C 3.71 g/m*3 9.4 C 1.6 km/h
Sensor: Nr:Datum:Temp:Abs-Feuchte:Windchill:Wind:
Aussen-T/F 526 31-03-2020 19:45:00 9.2 C 3.93 g/m*3 9.2 C 1.6 km/h
527 31-03-2020 19:50:00 8.7 C 4.06 g/m*3 8.7 C 3.2 km/h
528 31-03-2020 19:55:00 8.2 C 4.02 g/m*3 8.2 C 3.2 km/h
529 31-03-2020 20:00:00 7.6 C 4.11 g/m*3 7.6 C 4.8 km/h
530 31-03-2020 20:05:00 7 C 4.03 g/m*3 7 C 4.8 km/h
531 31-03-2020 20:10:00 6.5 C 4.05 g/m*3 6.5 C 3.2 km/h
532 31-03-2020 20:15:00 6.1 C 4.09 g/m*3 6.1 C 3.2 km/h
533 31-03-2020 20:20:00 5.7 C 3.99 g/m*3 5.7 C 4.8 km/h
534 31-03-2020 20:25:00 5.3 C 4.02 g/m*3 5.3 C 4.8 km/h
535 31-03-2020 20:30:00 5.1 C 4.04 g/m*3 5.1 C 4.8 km/h
536 31-03-2020 20:35:00 4.8 C 4.02 g/m*3 4.8 C 3.2 km/h
537 31-03-2020 20:40:00 4.6 C 4.04 g/m*3 4.6 C 3.2 km/h
538 31-03-2020 20:45:00 4.4 C 3.98 g/m*3 4.4 C 3.2 km/h
539 31-03-2020 20:50:00 4.2 C 3.99 g/m*3 4.2 C 4.8 km/h
540 31-03-2020 20:55:00 4.1 C 4.03 g/m*3 4.1 C 4.8 km/h
541 31-03-2020 21:00:00 3.9 C 3.98 g/m*3 3.9 C 4.8 km/h
542 31-03-2020 21:05:00 3.8 C 4.02 g/m*3 3.8 C 3.2 km/h
543 31-03-2020 21:10:00 3.7 C 3.99 g/m*3 3.7 C 1.6 km/h
544 31-03-2020 21:15:00 3.6 C 3.96 g/m*3 3.6 C 3.2 km/h
545 31-03-2020 21:20:00 3.5 C 3.94 g/m*3 3.5 C 4.8 km/h
546 31-03-2020 21:25:00 3.4 C 3.97 g/m*3 3.4 C 4.8 km/h
547 31-03-2020 21:30:00 3.3 C 3.88 g/m*3 3.3 C 3.2 km/h
548 31-03-2020 21:35:00 3.3 C 3.94 g/m*3 3.3 C 3.2 km/h
549 31-03-2020 21:40:00 3.2 C 3.98 g/m*3 3.2 C 3.2 km/h
550 31-03-2020 21:45:00 3.1 C 3.95 g/m*3 1.4 C 6.4 km/h
Sensor: Nr:Datum:Temp:Abs-Feuchte:Windchill:Wind:
Aussen-T/F 551 31-03-2020 21:50:00 3 C 3.92 g/m*3 3 C 4.8 km/h
552 31-03-2020 21:55:00 2.9 C 3.9 g/m*3 2.9 C 3.2 km/h
553 31-03-2020 22:00:00 2.8 C 3.87 g/m*3 2.8 C 4.8 km/h
554 31-03-2020 22:05:00 2.8 C 3.93 g/m*3 2.8 C 3.2 km/h
555 31-03-2020 22:10:00 2.7 C 3.9 g/m*3 2.7 C 4.8 km/h
556 31-03-2020 22:15:00 2.6 C 3.94 g/m*3 2.6 C 4.8 km/h
557 31-03-2020 22:20:00 2.5 C 3.91 g/m*3 2.5 C 4.8 km/h
558 31-03-2020 22:25:00 2.4 C 3.88 g/m*3 2.4 C 4.8 km/h
559 31-03-2020 22:30:00 2.3 C 3.86 g/m*3 2.3 C 4.8 km/h
560 31-03-2020 22:35:00 2.3 C 3.91 g/m*3 2.3 C 4.8 km/h
561 31-03-2020 22:40:00 2.2 C 3.89 g/m*3 2.2 C 4.8 km/h
562 31-03-2020 22:45:00 2.2 C 3.94 g/m*3 2.2 C 4.8 km/h
563 31-03-2020 22:50:00 2.1 C 3.86 g/m*3 2.1 C 4.8 km/h
564 31-03-2020 22:55:00 2 C 3.89 g/m*3 2 C 3.2 km/h
565 31-03-2020 23:00:00 1.9 C 3.86 g/m*3 1.9 C 4.8 km/h
566 31-03-2020 23:05:00 1.8 C 3.89 g/m*3 1.8 C 3.2 km/h
567 31-03-2020 23:10:00 1.7 C 3.87 g/m*3 1.7 C 4.8 km/h
568 31-03-2020 23:15:00 1.7 C 3.92 g/m*3 1.7 C 4.8 km/h
569 31-03-2020 23:20:00 1.6 C 3.89 g/m*3 1.6 C 3.2 km/h
570 31-03-2020 23:25:00 1.4 C 3.89 g/m*3 1.4 C 3.2 km/h
571 31-03-2020 23:30:00 1.3 C 3.87 g/m*3 1.3 C 4.8 km/h
572 31-03-2020 23:35:00 1.2 C 3.84 g/m*3 1.2 C 4.8 km/h
573 31-03-2020 23:40:00 1.2 C 3.89 g/m*3 1.2 C 4.8 km/h
574 31-03-2020 23:45:00 1.1 C 3.87 g/m*3 1.1 C 3.2 km/h
575 31-03-2020 23:50:00 1.1 C 3.87 g/m*3 1.1 C 3.2 km/h
Sensor: Nr:Datum:Temp:Abs-Feuchte:Windchill:Wind:
Aussen-T/F 576 31-03-2020 23:55:00 1.1 C 3.87 g/m*3 1.1 C 3.2 km/h
577 01-04-2020 00:00:00 1 C 3.84 g/m*3 1 C 3.2 km/h
578 01-04-2020 00:05:00 0.9 C 3.81 g/m*3 0.9 C 1.6 km/h
579 01-04-2020 00:10:00 0.8 C 3.84 g/m*3 0.8 C 1.6 km/h
580 01-04-2020 00:15:00 0.8 C 3.84 g/m*3 0.8 C 3.2 km/h
581 01-04-2020 00:20:00 0.7 C 3.81 g/m*3 0.7 C 3.2 km/h
582 01-04-2020 00:25:00 0.6 C 3.79 g/m*3 0.6 C 4.8 km/h
583 01-04-2020 00:30:00 0.6 C 3.79 g/m*3 0.6 C 4.8 km/h
584 01-04-2020 00:35:00 0.4 C 3.74 g/m*3 0.4 C 1.6 km/h
585 01-04-2020 00:40:00 0.4 C 3.74 g/m*3 0.4 C 3.2 km/h
586 01-04-2020 00:45:00 0.3 C 3.76 g/m*3 0.3 C 4.8 km/h
587 01-04-2020 00:50:00 0.3 C 3.71 g/m*3 0.3 C 0 km/h
588 01-04-2020 00:55:00 0.3 C 3.76 g/m*3 0.3 C 3.2 km/h
589 01-04-2020 01:00:00 0.2 C 3.73 g/m*3 0.2 C 3.2 km/h
590 01-04-2020 01:05:00 0.2 C 3.78 g/m*3 0.2 C 3.2 km/h
591 01-04-2020 01:10:00 0.1 C 3.76 g/m*3 0.1 C 3.2 km/h
592 01-04-2020 01:15:00 0.1 C 3.81 g/m*3 0.1 C 0 km/h
593 01-04-2020 01:20:00 0 C 3.78 g/m*3 0 C 0 km/h
594 01-04-2020 01:25:00 -0.1 C 3.75 g/m*3 -0.1 C 0 km/h
595 01-04-2020 01:30:00 -0.2 C 3.73 g/m*3 -0.2 C 0 km/h
596 01-04-2020 01:35:00 -0.2 C 3.73 g/m*3 -0.2 C 1.6 km/h
597 01-04-2020 01:40:00 -0.3 C 3.75 g/m*3 -0.3 C 0 km/h
598 01-04-2020 01:45:00 -0.4 C 3.72 g/m*3 -0.4 C 0 km/h
599 01-04-2020 01:50:00 -0.5 C 3.7 g/m*3 -0.5 C 0 km/h
600 01-04-2020 01:55:00 -0.6 C 3.67 g/m*3 -0.6 C 0 km/h
Sensor: Nr:Datum:Temp:Abs-Feuchte:Windchill:Wind:
Aussen-T/F 601 01-04-2020 02:00:00 -0.7 C 3.65 g/m*3 -0.7 C 0 km/h
602 01-04-2020 02:05:00 -0.8 C 3.62 g/m*3 -0.8 C 0 km/h
603 01-04-2020 02:10:00 -0.8 C 3.67 g/m*3 -0.8 C 0 km/h
604 01-04-2020 02:15:00 -0.9 C 3.64 g/m*3 -0.9 C 0 km/h
605 01-04-2020 02:20:00 -0.9 C 3.64 g/m*3 -0.9 C 0 km/h
606 01-04-2020 02:25:00 -1 C 3.62 g/m*3 -1 C 0 km/h
607 01-04-2020 02:30:00 -1.1 C 3.59 g/m*3 -1.1 C 0 km/h
608 01-04-2020 02:35:00 -1.1 C 3.59 g/m*3 -1.1 C 0 km/h
609 01-04-2020 02:40:00 -1.2 C 3.57 g/m*3 -1.2 C 0 km/h
610 01-04-2020 02:45:00 -1.2 C 3.61 g/m*3 -1.2 C 0 km/h
611 01-04-2020 02:50:00 -1.3 C 3.59 g/m*3 -1.3 C 0 km/h
612 01-04-2020 02:55:00 -1.3 C 3.59 g/m*3 -1.3 C 0 km/h
613 01-04-2020 03:00:00 -1.3 C 3.59 g/m*3 -1.3 C 0 km/h
614 01-04-2020 03:05:00 -1.4 C 3.52 g/m*3 -1.4 C 0 km/h
615 01-04-2020 03:10:00 -1.4 C 3.52 g/m*3 -1.4 C 0 km/h
616 01-04-2020 03:15:00 -1.5 C 3.49 g/m*3 -1.5 C 0 km/h
617 01-04-2020 03:20:00 -1.6 C 3.51 g/m*3 -1.6 C 0 km/h
618 01-04-2020 03:25:00 -1.7 C 3.49 g/m*3 -1.7 C 0 km/h
619 01-04-2020 03:30:00 -1.7 C 3.49 g/m*3 -1.7 C 0 km/h
620 01-04-2020 03:35:00 -1.7 C 3.49 g/m*3 -1.7 C 0 km/h
621 01-04-2020 03:40:00 -1.8 C 3.46 g/m*3 -1.8 C 0 km/h
622 01-04-2020 03:45:00 -1.8 C 3.42 g/m*3 -1.8 C 0 km/h
623 01-04-2020 03:50:00 -1.9 C 3.44 g/m*3 -1.9 C 0 km/h
624 01-04-2020 03:55:00 -1.9 C 3.44 g/m*3 -1.9 C 0 km/h
625 01-04-2020 04:00:00 -1.9 C 3.44 g/m*3 -1.9 C 0 km/h
Sensor: Nr:Datum:Temp:Abs-Feuchte:Windchill:Wind:
Aussen-T/F 626 01-04-2020 04:05:00 -1.9 C 3.44 g/m*3 -1.9 C 0 km/h
627 01-04-2020 04:10:00 -2 C 3.41 g/m*3 -2 C 0 km/h
628 01-04-2020 04:15:00 -2.1 C 3.39 g/m*3 -2.1 C 0 km/h
629 01-04-2020 04:20:00 -2.1 C 3.39 g/m*3 -2.1 C 0 km/h
630 01-04-2020 04:25:00 -2.2 C 3.33 g/m*3 -2.2 C 0 km/h
631 01-04-2020 04:30:00 -2.2 C 3.37 g/m*3 -2.2 C 0 km/h
632 01-04-2020 04:35:00 -2.3 C 3.34 g/m*3 -2.3 C 0 km/h
633 01-04-2020 04:40:00 -2.3 C 3.34 g/m*3 -2.3 C 0 km/h
634 01-04-2020 04:45:00 -2.3 C 3.34 g/m*3 -2.3 C 0 km/h
635 01-04-2020 04:50:00 -2.4 C 3.32 g/m*3 -2.4 C 0 km/h
636 01-04-2020 04:55:00 -2.4 C 3.32 g/m*3 -2.4 C 0 km/h
637 01-04-2020 05:00:00 -2.4 C 3.36 g/m*3 -2.4 C 0 km/h
638 01-04-2020 05:05:00 -2.5 C 3.34 g/m*3 -2.5 C 0 km/h
639 01-04-2020 05:10:00 -2.6 C 3.31 g/m*3 -2.6 C 0 km/h
640 01-04-2020 05:15:00 -2.6 C 3.31 g/m*3 -2.6 C 0 km/h
641 01-04-2020 05:20:00 -2.7 C 3.29 g/m*3 -2.7 C 0 km/h
642 01-04-2020 05:25:00 -2.7 C 3.33 g/m*3 -2.7 C 0 km/h
643 01-04-2020 05:30:00 -2.7 C 3.33 g/m*3 -2.7 C 0 km/h
644 01-04-2020 05:35:00 -2.7 C 3.33 g/m*3 -2.7 C 0 km/h
645 01-04-2020 05:40:00 -2.7 C 3.33 g/m*3 -2.7 C 0 km/h
646 01-04-2020 05:45:00 -2.8 C 3.31 g/m*3 -2.8 C 0 km/h
647 01-04-2020 05:50:00 -2.8 C 3.31 g/m*3 -2.8 C 0 km/h
648 01-04-2020 05:55:00 -2.8 C 3.31 g/m*3 -2.8 C 0 km/h
649 01-04-2020 06:00:00 -2.9 C 3.28 g/m*3 -2.9 C 0 km/h
650 01-04-2020 06:05:00 -2.9 C 3.28 g/m*3 -2.9 C 0 km/h
Sensor: Nr:Datum:Temp:Abs-Feuchte:Windchill:Wind:
Aussen-T/F 651 01-04-2020 06:10:00 -2.9 C 3.32 g/m*3 -2.9 C 0 km/h
652 01-04-2020 06:15:00 -3 C 3.3 g/m*3 -3 C 0 km/h
653 01-04-2020 06:20:00 -3 C 3.3 g/m*3 -3 C 0 km/h
654 01-04-2020 06:25:00 -3.1 C 3.28 g/m*3 -3.1 C 0 km/h
655 01-04-2020 06:30:00 -3.1 C 3.28 g/m*3 -3.1 C 0 km/h
656 01-04-2020 06:35:00 -3.1 C 3.32 g/m*3 -3.1 C 0 km/h
657 01-04-2020 06:40:00 -3.1 C 3.32 g/m*3 -3.1 C 0 km/h
658 01-04-2020 06:45:00 -3.1 C 3.32 g/m*3 -3.1 C 0 km/h
659 01-04-2020 06:50:00 -3.2 C 3.29 g/m*3 -3.2 C 0 km/h
660 01-04-2020 06:55:00 -3.2 C 3.29 g/m*3 -3.2 C 0 km/h
661 01-04-2020 07:00:00 -3.2 C 3.29 g/m*3 -3.2 C 0 km/h
662 01-04-2020 07:05:00 -3.3 C 3.27 g/m*3 -3.3 C 0 km/h
663 01-04-2020 07:10:00 -3.3 C 3.27 g/m*3 -3.3 C 0 km/h
664 01-04-2020 07:15:00 -3.4 C 3.25 g/m*3 -3.4 C 0 km/h
665 01-04-2020 07:20:00 -3.4 C 3.25 g/m*3 -3.4 C 0 km/h
666 01-04-2020 07:25:00 -3.4 C 3.25 g/m*3 -3.4 C 0 km/h
667 01-04-2020 07:30:00 -3.4 C 3.28 g/m*3 -3.4 C 0 km/h
668 01-04-2020 07:35:00 -3.3 C 3.31 g/m*3 -3.3 C 0 km/h
669 01-04-2020 07:40:00 -3.3 C 3.27 g/m*3 -3.3 C 0 km/h
670 01-04-2020 07:45:00 -3.3 C 3.27 g/m*3 -3.3 C 0 km/h
671 01-04-2020 07:50:00 -3.3 C 3.31 g/m*3 -3.3 C 0 km/h
672 01-04-2020 07:55:00 -3.3 C 3.31 g/m*3 -3.3 C 0 km/h
673 01-04-2020 08:00:00 -3.2 C 3.33 g/m*3 -3.2 C 0 km/h
674 01-04-2020 08:05:00 -3.2 C 3.33 g/m*3 -3.2 C 0 km/h
675 01-04-2020 08:10:00 -3.2 C 3.33 g/m*3 -3.2 C 0 km/h
Sensor: Nr:Datum:Temp:Abs-Feuchte:Windchill:Wind:
Aussen-T/F 676 01-04-2020 08:15:00 -3.1 C 3.39 g/m*3 -3.1 C 0 km/h
677 01-04-2020 08:20:00 -2.9 C 3.44 g/m*3 -2.9 C 0 km/h
678 01-04-2020 08:25:00 -2.9 C 3.44 g/m*3 -2.9 C 0 km/h
679 01-04-2020 08:30:00 -2.9 C 3.4 g/m*3 -2.9 C 0 km/h
680 01-04-2020 08:35:00 -2.8 C 3.43 g/m*3 -2.8 C 0 km/h
681 01-04-2020 08:40:00 -2.8 C 3.43 g/m*3 -2.8 C 0 km/h
682 01-04-2020 08:45:00 -2.8 C 3.43 g/m*3 -2.8 C 0 km/h
683 01-04-2020 08:50:00 -2.8 C 3.43 g/m*3 -2.8 C 0 km/h
684 01-04-2020 08:55:00 -2.7 C 3.45 g/m*3 -2.7 C 0 km/h
685 01-04-2020 09:00:00 -2.6 C 3.43 g/m*3 -2.6 C 0 km/h
686 01-04-2020 09:05:00 -2.6 C 3.43 g/m*3 -2.6 C 0 km/h
687 01-04-2020 09:10:00 -2.4 C 3.48 g/m*3 -2.4 C 0 km/h
688 01-04-2020 09:15:00 -2.3 C 3.51 g/m*3 -2.3 C 0 km/h
689 01-04-2020 09:20:00 -2.3 C 3.51 g/m*3 -2.3 C 0 km/h
690 01-04-2020 09:25:00 -2.2 C 3.53 g/m*3 -2.2 C 0 km/h
691 01-04-2020 09:30:00 -2.1 C 3.56 g/m*3 -2.1 C 0 km/h
692 01-04-2020 09:35:00 -1.9 C 3.57 g/m*3 -1.9 C 0 km/h
693 01-04-2020 09:40:00 -1.8 C 3.59 g/m*3 -1.8 C 0 km/h
694 01-04-2020 09:45:00 -1.7 C 3.62 g/m*3 -1.7 C 1.6 km/h
695 01-04-2020 09:50:00 -1.7 C 3.62 g/m*3 -1.7 C 1.6 km/h
696 01-04-2020 09:55:00 -1.6 C 3.64 g/m*3 -1.6 C 0 km/h
697 01-04-2020 10:00:00 -1.4 C 3.69 g/m*3 -1.4 C 1.6 km/h
698 01-04-2020 10:05:00 -1.3 C 3.72 g/m*3 -1.3 C 0 km/h
699 01-04-2020 10:10:00 -1.1 C 3.77 g/m*3 -1.1 C 0 km/h
700 01-04-2020 10:15:00 -0.9 C 3.82 g/m*3 -0.9 C 0 km/h
Sensor: Nr:Datum:Temp:Abs-Feuchte:Windchill:Wind:
Aussen-T/F 701 01-04-2020 10:20:00 -0.6 C 3.9 g/m*3 -0.6 C 0 km/h
702 01-04-2020 10:25:00 -0.3 C 3.94 g/m*3 -0.3 C 0 km/h
703 01-04-2020 10:30:00 -0.1 C 3.99 g/m*3 -0.1 C 0 km/h
704 01-04-2020 10:35:00 0.2 C 4.03 g/m*3 0.2 C 0 km/h
705 01-04-2020 10:40:00 0.6 C 4.14 g/m*3 0.6 C 0 km/h
706 01-04-2020 10:45:00 0.9 C 4.18 g/m*3 0.9 C 0 km/h
707 01-04-2020 10:50:00 1.3 C 4.19 g/m*3 1.3 C 0 km/h
708 01-04-2020 10:55:00 1.8 C 4.28 g/m*3 1.8 C 0 km/h
709 01-04-2020 11:00:00 2.3 C 4.31 g/m*3 2.3 C 0 km/h
710 01-04-2020 11:05:00 2.6 C 4.34 g/m*3 2.6 C 0 km/h
711 01-04-2020 11:10:00 2.8 C 4.34 g/m*3 2.8 C 0 km/h
712 01-04-2020 11:15:00 3.1 C 4.25 g/m*3 3.1 C 0 km/h
713 01-04-2020 11:20:00 3.3 C 4.19 g/m*3 3.3 C 0 km/h
714 01-04-2020 11:25:00 3.7 C 3.99 g/m*3 3.7 C 0 km/h
715 01-04-2020 11:30:00 3.9 C 3.92 g/m*3 3.9 C 3.2 km/h
716 01-04-2020 11:35:00 4.3 C 3.76 g/m*3 4.3 C 1.6 km/h
717 01-04-2020 11:40:00 4.7 C 3.93 g/m*3 4.7 C 3.2 km/h
718 01-04-2020 11:45:00 5.1 C 3.9 g/m*3 5.1 C 3.2 km/h
719 01-04-2020 11:50:00 5.4 C 3.77 g/m*3 5.4 C 0 km/h
720 01-04-2020 11:55:00 5.7 C 3.56 g/m*3 5.7 C 3.2 km/h
721 01-04-2020 12:00:00 6 C 3.63 g/m*3 6 C 1.6 km/h
722 01-04-2020 12:05:00 6.3 C 3.55 g/m*3 6.3 C 1.6 km/h
723 01-04-2020 12:10:00 6.7 C 3.65 g/m*3 5.56 C 6.4 km/h
724 01-04-2020 12:15:00 6.8 C 3.59 g/m*3 6.8 C 4.8 km/h
725 01-04-2020 12:20:00 7.1 C 3.59 g/m*3 5.23 C 9.7 km/h
Sensor: Nr:Datum:Temp:Abs-Feuchte:Windchill:Wind:
Aussen-T/F 726 01-04-2020 12:25:00 7.3 C 3.71 g/m*3 5.47 C 9.7 km/h
727 01-04-2020 12:30:00 7.6 C 3.63 g/m*3 6.6 C 6.4 km/h
728 01-04-2020 12:35:00 7.7 C 3.65 g/m*3 7.7 C 4.8 km/h
729 01-04-2020 12:40:00 7.8 C 3.59 g/m*3 6.83 C 6.4 km/h
730 01-04-2020 12:45:00 7.9 C 3.53 g/m*3 7.9 C 4.8 km/h
731 01-04-2020 12:50:00 8.1 C 3.66 g/m*3 7.17 C 6.4 km/h
732 01-04-2020 12:55:00 8.2 C 3.6 g/m*3 7.29 C 6.4 km/h
733 01-04-2020 13:00:00 8.3 C 3.71 g/m*3 7.41 C 6.4 km/h
734 01-04-2020 13:05:00 8.6 C 3.61 g/m*3 7.75 C 6.4 km/h
735 01-04-2020 13:10:00 8.6 C 3.61 g/m*3 8.6 C 4.8 km/h
736 01-04-2020 13:15:00 8.7 C 3.63 g/m*3 8.7 C 4.8 km/h
737 01-04-2020 13:20:00 8.8 C 3.57 g/m*3 6.72 C 12.9 km/h
738 01-04-2020 13:25:00 8.7 C 3.46 g/m*3 6.6 C 12.9 km/h
739 01-04-2020 13:30:00 8.7 C 3.55 g/m*3 7.46 C 8.1 km/h
740 01-04-2020 13:35:00 8.8 C 3.57 g/m*3 8.8 C 3.2 km/h
741 01-04-2020 13:40:00 8.9 C 3.59 g/m*3 8.9 C 3.2 km/h
742 01-04-2020 13:45:00 9.2 C 3.57 g/m*3 9.2 C 4.8 km/h
743 01-04-2020 13:50:00 9.2 C 3.57 g/m*3 8.45 C 6.4 km/h
744 01-04-2020 13:55:00 9.2 C 3.57 g/m*3 8.05 C 8.1 km/h
745 01-04-2020 14:00:00 9.2 C 3.57 g/m*3 7.73 C 9.7 km/h
746 01-04-2020 14:05:00 9.3 C 3.59 g/m*3 8.16 C 8.1 km/h
747 01-04-2020 14:10:00 9.4 C 3.62 g/m*3 8.68 C 6.4 km/h
748 01-04-2020 14:15:00 9.5 C 3.55 g/m*3 8.79 C 6.4 km/h
749 01-04-2020 14:20:00 9.8 C 3.71 g/m*3 8.45 C 9.7 km/h
750 01-04-2020 14:25:00 9.9 C 3.73 g/m*3 8.87 C 8.1 km/h
Sensor: Nr:Datum:Temp:Abs-Feuchte:Windchill:Wind:
Aussen-T/F 751 01-04-2020 14:30:00 10.1 C 3.59 g/m*3 10.1 C 4.8 km/h
752 01-04-2020 14:35:00 10.3 C 3.54 g/m*3 8.34 C 14.5 km/h
753 01-04-2020 14:40:00 10.3 C 3.45 g/m*3 9.34 C 8.1 km/h
754 01-04-2020 14:45:00 10.3 C 3.54 g/m*3 9.72 C 6.4 km/h
755 01-04-2020 14:50:00 10.3 C 3.26 g/m*3 9.04 C 9.7 km/h
756 01-04-2020 14:55:00 10.3 C 3.26 g/m*3 9.72 C 6.4 km/h
757 01-04-2020 15:00:00 10.3 C 3.26 g/m*3 9.34 C 8.1 km/h
758 01-04-2020 15:05:00 10.2 C 3.24 g/m*3 10.2 C 4.8 km/h
759 01-04-2020 15:10:00 10.3 C 3.35 g/m*3 9.72 C 6.4 km/h
760 01-04-2020 15:15:00 10.4 C 3.47 g/m*3 9.46 C 8.1 km/h
761 01-04-2020 15:20:00 10.7 C 3.34 g/m*3 10.18 C 6.4 km/h
762 01-04-2020 15:25:00 10.8 C 3.26 g/m*3 9.64 C 9.7 km/h
763 01-04-2020 15:30:00 10.7 C 3.24 g/m*3 10.18 C 6.4 km/h
764 01-04-2020 15:35:00 10.7 C 3.24 g/m*3 10.7 C 3.2 km/h
765 01-04-2020 15:40:00 10.8 C 3.26 g/m*3 9.93 C 8.1 km/h
766 01-04-2020 15:45:00 10.9 C 3.08 g/m*3 9.76 C 9.7 km/h
767 01-04-2020 15:50:00 11 C 3.1 g/m*3 10.52 C 6.4 km/h
768 01-04-2020 15:55:00 11.1 C 3.12 g/m*3 11.1 C 4.8 km/h
769 01-04-2020 16:00:00 11.1 C 3.32 g/m*3 11.1 C 6.4 km/h
770 01-04-2020 16:05:00 11.1 C 3.32 g/m*3 11.1 C 3.2 km/h
771 01-04-2020 16:10:00 11.2 C 3.45 g/m*3 11.2 C 4.8 km/h
772 01-04-2020 16:15:00 11.4 C 3.39 g/m*3 11.4 C 8.1 km/h
773 01-04-2020 16:20:00 11.5 C 3.31 g/m*3 11.5 C 8.1 km/h
774 01-04-2020 16:25:00 11.6 C 3.22 g/m*3 11.6 C 4.8 km/h
775 01-04-2020 16:30:00 11.6 C 3.22 g/m*3 11.6 C 6.4 km/h
Sensor: Nr:Datum:Temp:Abs-Feuchte:Windchill:Wind:
Aussen-T/F 776 01-04-2020 16:35:00 11.7 C 3.14 g/m*3 11.7 C 4.8 km/h
777 01-04-2020 16:40:00 11.8 C 3.47 g/m*3 11.8 C 3.2 km/h
778 01-04-2020 16:45:00 12.2 C 3.45 g/m*3 12.2 C 3.2 km/h
779 01-04-2020 16:50:00 12.6 C 3.54 g/m*3 12.6 C 9.7 km/h
780 01-04-2020 16:55:00 12.6 C 3.65 g/m*3 12.6 C 8.1 km/h
781 01-04-2020 17:00:00 12.6 C 3.54 g/m*3 12.6 C 8.1 km/h
782 01-04-2020 17:05:00 12.4 C 3.5 g/m*3 12.4 C 9.7 km/h
783 01-04-2020 17:10:00 12.9 C 4.06 g/m*3 12.9 C 3.2 km/h
784 01-04-2020 17:15:00 13.2 C 3.79 g/m*3 13.2 C 6.4 km/h
785 01-04-2020 17:20:00 13.2 C 3.67 g/m*3 13.2 C 6.4 km/h
786 01-04-2020 17:25:00 13.3 C 3.81 g/m*3 13.3 C 8.1 km/h
787 01-04-2020 17:30:00 13.2 C 3.56 g/m*3 13.2 C 6.4 km/h
788 01-04-2020 17:35:00 13.3 C 3.58 g/m*3 13.3 C 3.2 km/h
789 01-04-2020 17:40:00 13.3 C 3.58 g/m*3 13.3 C 8.1 km/h
790 01-04-2020 17:45:00 13.2 C 3.67 g/m*3 13.2 C 6.4 km/h
791 01-04-2020 17:50:00 13.2 C 3.67 g/m*3 13.2 C 4.8 km/h
792 01-04-2020 17:55:00 13.1 C 3.65 g/m*3 13.1 C 9.7 km/h
793 01-04-2020 18:00:00 12.9 C 3.61 g/m*3 12.9 C 8.1 km/h
794 01-04-2020 18:05:00 12.6 C 3.65 g/m*3 12.6 C 9.7 km/h
795 01-04-2020 18:10:00 12.5 C 3.63 g/m*3 12.5 C 8.1 km/h
796 01-04-2020 18:15:00 12.6 C 3.65 g/m*3 12.6 C 8.1 km/h
797 01-04-2020 18:20:00 12.7 C 3.67 g/m*3 12.7 C 6.4 km/h
798 01-04-2020 18:25:00 12.9 C 3.72 g/m*3 12.9 C 6.4 km/h
799 01-04-2020 18:30:00 12.9 C 3.61 g/m*3 12.9 C 4.8 km/h
800 01-04-2020 18:35:00 13 C 3.74 g/m*3 13 C 4.8 km/h
Sensor: Nr:Datum:Temp:Abs-Feuchte:Windchill:Wind:
Aussen-T/F 801 01-04-2020 18:40:00 13.1 C 3.77 g/m*3 13.1 C 4.8 km/h
802 01-04-2020 18:45:00 13.2 C 3.67 g/m*3 13.2 C 4.8 km/h
803 01-04-2020 18:50:00 13.2 C 3.67 g/m*3 13.2 C 4.8 km/h
804 01-04-2020 18:55:00 13.2 C 3.79 g/m*3 13.2 C 3.2 km/h
805 01-04-2020 19:00:00 13.3 C 3.7 g/m*3 13.3 C 6.4 km/h
806 01-04-2020 19:05:00 13 C 3.74 g/m*3 13 C 4.8 km/h
807 01-04-2020 19:10:00 12.8 C 3.7 g/m*3 12.8 C 6.4 km/h
808 01-04-2020 19:15:00 12.7 C 3.67 g/m*3 12.7 C 6.4 km/h
809 01-04-2020 19:20:00 12.4 C 3.71 g/m*3 12.4 C 6.4 km/h
810 01-04-2020 19:25:00 12.2 C 3.67 g/m*3 12.2 C 6.4 km/h
811 01-04-2020 19:30:00 11.8 C 3.58 g/m*3 11.8 C 9.7 km/h
812 01-04-2020 19:35:00 11.5 C 3.62 g/m*3 11.5 C 4.8 km/h
813 01-04-2020 19:40:00 11.2 C 3.55 g/m*3 11.2 C 4.8 km/h
814 01-04-2020 19:45:00 10.9 C 3.58 g/m*3 10.04 C 8.1 km/h
815 01-04-2020 19:50:00 10.7 C 3.54 g/m*3 10.7 C 4.8 km/h
816 01-04-2020 19:55:00 10.4 C 3.76 g/m*3 10.4 C 1.6 km/h
817 01-04-2020 20:00:00 10.1 C 3.59 g/m*3 9.48 C 6.4 km/h
818 01-04-2020 20:05:00 9.7 C 3.69 g/m*3 9.7 C 4.8 km/h
819 01-04-2020 20:10:00 9.4 C 3.8 g/m*3 9.4 C 1.6 km/h
820 01-04-2020 20:15:00 9.2 C 3.48 g/m*3 7.46 C 11.3 km/h
821 01-04-2020 20:20:00 9.1 C 3.46 g/m*3 8.33 C 6.4 km/h
822 01-04-2020 20:25:00 9.1 C 3.64 g/m*3 9.1 C 4.8 km/h
823 01-04-2020 20:30:00 8.8 C 3.83 g/m*3 8.8 C 1.6 km/h
824 01-04-2020 20:35:00 8.4 C 3.9 g/m*3 8.4 C 0 km/h
825 01-04-2020 20:40:00 7.8 C 4 g/m*3 6.83 C 6.4 km/h
Sensor: Nr:Datum:Temp:Abs-Feuchte:Windchill:Wind:
Aussen-T/F 826 01-04-2020 20:45:00 7.4 C 4.06 g/m*3 7.4 C 4.8 km/h
827 01-04-2020 20:50:00 6.9 C 4.16 g/m*3 5.79 C 6.4 km/h
828 01-04-2020 20:55:00 6.6 C 4.08 g/m*3 5.44 C 6.4 km/h
829 01-04-2020 21:00:00 6.3 C 4.07 g/m*3 5.1 C 6.4 km/h
830 01-04-2020 21:05:00 6 C 4.06 g/m*3 6 C 4.8 km/h
831 01-04-2020 21:10:00 5.7 C 4.06 g/m*3 4.4 C 6.4 km/h
832 01-04-2020 21:15:00 5.6 C 4.03 g/m*3 4.29 C 6.4 km/h
833 01-04-2020 21:20:00 5.4 C 4.12 g/m*3 5.4 C 4.8 km/h
834 01-04-2020 21:25:00 5.3 C 4.09 g/m*3 5.3 C 4.8 km/h
835 01-04-2020 21:30:00 5.2 C 4.06 g/m*3 5.2 C 4.8 km/h
836 01-04-2020 21:35:00 5.1 C 4.1 g/m*3 5.1 C 4.8 km/h
837 01-04-2020 21:40:00 5 C 4.08 g/m*3 3.59 C 6.4 km/h
838 01-04-2020 21:45:00 4.9 C 4.12 g/m*3 4.9 C 1.6 km/h
839 01-04-2020 21:50:00 4.7 C 4.13 g/m*3 4.7 C 3.2 km/h
840 01-04-2020 21:55:00 4.6 C 4.17 g/m*3 4.6 C 4.8 km/h
841 01-04-2020 22:00:00 4.4 C 4.05 g/m*3 4.4 C 4.8 km/h
842 01-04-2020 22:05:00 4.3 C 4.09 g/m*3 4.3 C 4.8 km/h
843 01-04-2020 22:10:00 4.2 C 4.12 g/m*3 4.2 C 4.8 km/h
844 01-04-2020 22:15:00 4 C 4.07 g/m*3 4 C 4.8 km/h
845 01-04-2020 22:20:00 3.9 C 4.11 g/m*3 3.9 C 3.2 km/h
846 01-04-2020 22:25:00 3.7 C 4.11 g/m*3 3.7 C 1.6 km/h
847 01-04-2020 22:30:00 3.6 C 4.09 g/m*3 3.6 C 3.2 km/h
848 01-04-2020 22:35:00 3.5 C 4.06 g/m*3 3.5 C 3.2 km/h
849 01-04-2020 22:40:00 3.5 C 4.06 g/m*3 3.5 C 0 km/h
850 01-04-2020 22:45:00 3.4 C 4.03 g/m*3 3.4 C 1.6 km/h
Sensor: Nr:Datum:Temp:Abs-Feuchte:Windchill:Wind:
Aussen-T/F 851 01-04-2020 22:50:00 3.3 C 4.06 g/m*3 3.3 C 0 km/h
852 01-04-2020 22:55:00 3.2 C 4.1 g/m*3 3.2 C 0 km/h
853 01-04-2020 23:00:00 3.1 C 4.13 g/m*3 3.1 C 1.6 km/h
854 01-04-2020 23:05:00 2.9 C 4.13 g/m*3 2.9 C 1.6 km/h
855 01-04-2020 23:10:00 2.7 C 4.08 g/m*3 2.7 C 1.6 km/h
856 01-04-2020 23:15:00 2.7 C 4.14 g/m*3 2.7 C 0 km/h
857 01-04-2020 23:20:00 2.7 C 4.14 g/m*3 2.7 C 0 km/h
858 01-04-2020 23:25:00 2.6 C 4.17 g/m*3 2.6 C 0 km/h
859 01-04-2020 23:30:00 2.4 C 4.05 g/m*3 2.4 C 0 km/h
860 01-04-2020 23:35:00 2.3 C 4.03 g/m*3 2.3 C 0 km/h
861 01-04-2020 23:40:00 2.2 C 4.06 g/m*3 2.2 C 0 km/h
862 01-04-2020 23:45:00 2 C 4.06 g/m*3 2 C 1.6 km/h
863 01-04-2020 23:50:00 1.9 C 4.03 g/m*3 1.9 C 1.6 km/h
864 01-04-2020 23:55:00 1.8 C 4 g/m*3 1.8 C 3.2 km/h

Legende:
   Min
   Max


Maximal/Minimal-Werte vom 30.03.2020 - 01.04.2020

Sensor Min Max Avg
Temp
(Aussen-T/F)
-3.4 °C
30-03-2020  07:55:00
13.3 °C
01-04-2020  17:25:00
4.02 °C
Abs-Feuchte
(Aussen-T/F)
2.46 g/m*3
30-03-2020  12:25:00
5.67 g/m*3
31-03-2020  08:35:00
3.9 g/m*3
Windchill
(Aussen-T/F)
-5.76 C
30-03-2020  06:40:00
13.3 C
01-04-2020  17:25:00
3.43 C

Die Daten stammen von einer Davis Vantage Pro 2 Wetter-Station und werden unter Linux mit der Software wview2wettercgi und aufbereitet. Alle Angaben erfolgen ohne Gewähr für ihre Vollständigkeit oder Richtigkeit.
Kontakt: Rainer Krienke krienke@uni-koblenz.de . Meine Webseiten an der Uni Koblenz oder privat.
Version: $Revision: 0.78 $